| time (UTC) | temp F | wind direction | speed MPH | gust MPH | rain 1hr in | rain 24hr in | rain mn in | humidity % | barometer mb |
| 20260905200009 | 94 | 49 | 1.0 | 2.0 | 0.00 | 0.00 | 0.00 | 66 | 1011.8 |
| 20260905195504 | 93 | 49 | 1.0 | 1.0 | 0.00 | 0.00 | 0.00 | 70 | 1011.8 |
| 20260905195007 | 93 | 73 | 1.0 | 2.0 | 0.00 | 0.00 | 0.00 | 73 | 1011.9 |
| 20260905194513 | 93 | 73 | 1.0 | 2.0 | 0.00 | 0.00 | 0.00 | 66 | 1012.1 |
| 20260905194004 | 93 | 80 | 1.0 | 2.0 | 0.00 | 0.00 | 0.00 | 59 | 1012.2 |
| 20260905193505 | 93 | 267 | 0.0 | 2.0 | 0.00 | 0.00 | 0.00 | 65 | 1012.3 |
| 20260905193012 | 94 | 267 | 0.0 | 2.0 | 0.00 | 0.00 | 0.00 | 64 | 1012.4 |
| 20260905192506 | 94 | 267 | 1.0 | 3.0 | 0.00 | 0.00 | 0.00 | 56 | 1012.5 |
| 20260905192006 | 94 | 100 | 0.0 | 3.0 | 0.00 | 0.00 | 0.00 | 57 | 1012.5 |
| 20260905191512 | 95 | 79 | 1.0 | 2.0 | 0.00 | 0.00 | 0.00 | 61 | 1012.6 |
| 20260905191010 | 96 | 89 | 1.0 | 3.0 | 0.00 | 0.00 | 0.00 | 62 | 1012.8 |
| 20260905190508 | 96 | 41 | 1.0 | 3.0 | 0.00 | 0.00 | 0.00 | 57 | 1012.9 |
| 20260905190013 | 96 | 176 | 1.0 | 4.0 | 0.00 | 0.00 | 0.00 | 56 | 1013.0 |
| 20260905185505 | 96 | 356 | 2.0 | 4.0 | 0.00 | 0.00 | 0.00 | 59 | 1013.0 |
| 20260905185006 | 96 | 69 | 1.0 | 7.0 | 0.00 | 0.00 | 0.00 | 56 | 1012.9 |
| 20260905184513 | 96 | 54 | 3.0 | 7.0 | 0.00 | 0.00 | 0.00 | 56 | 1013.0 |
| 20260905184004 | 96 | 103 | 1.0 | 5.0 | 0.00 | 0.00 | 0.00 | 56 | 1013.2 |
| 20260905183504 | 96 | 89 | 1.0 | 5.0 | 0.00 | 0.00 | 0.00 | 58 | 1013.3 |
| 20260905183014 | 97 | 186 | 1.0 | 5.0 | 0.00 | 0.00 | 0.00 | 58 | 1013.2 |
| 20260905182505 | 96 | 180 | 1.0 | 4.0 | 0.00 | 0.00 | 0.00 | 61 | 1013.3 |
| 20260905182007 | 96 | 90 | 1.0 | 4.0 | 0.00 | 0.00 | 0.00 | 58 | 1013.4 |
| 20260905181515 | 96 | 23 | 2.0 | 3.0 | 0.00 | 0.00 | 0.00 | 59 | 1013.5 |
| 20260905181007 | 95 | 94 | 1.0 | 4.0 | 0.00 | 0.00 | 0.00 | 58 | 1013.5 |
| 20260905180504 | 95 | 161 | 3.0 | 6.0 | 0.00 | 0.00 | 0.00 | 57 | 1013.5 |
| 20260905180015 | 95 | 138 | 1.0 | 7.0 | 0.00 | 0.00 | 0.00 | 60 | 1013.7 |
| 20260905175508 | 96 | 60 | 3.0 | 7.0 | 0.00 | 0.00 | 0.00 | 59 | 1013.7 |
| 20260905175007 | 95 | 24 | 1.0 | 3.0 | 0.00 | 0.00 | 0.00 | 59 | 1013.7 |
| 20260905174512 | 95 | 38 | 0.0 | 5.0 | 0.00 | 0.00 | 0.00 | 60 | 1013.9 |
| 20260905174012 | 95 | 56 | 1.0 | 5.0 | 0.00 | 0.00 | 0.00 | 61 | 1014.0 |
| 20260905173504 | 95 | 69 | 2.0 | 6.0 | 0.00 | 0.00 | 0.00 | 63 | 1014.1 |
| 20260905173007 | 95 | 80 | 2.0 | 6.0 | 0.00 | 0.00 | 0.00 | 63 | 1014.2 |
| 20260905172506 | 94 | 86 | 2.0 | 4.0 | 0.00 | 0.00 | 0.00 | 58 | 1014.2 |
| 20260905172006 | 94 | 45 | 2.0 | 4.0 | 0.00 | 0.00 | 0.00 | 59 | 1014.2 |
| 20260905171519 | 93 | 227 | 1.0 | 6.0 | 0.00 | 0.00 | 0.00 | 61 | 1014.2 |
| 20260905171007 | 94 | 151 | 4.0 | 6.0 | 0.00 | 0.00 | 0.00 | 60 | 1014.3 |
| 20260905170505 | 93 | 53 | 2.0 | 7.0 | 0.00 | 0.00 | 0.00 | 63 | 1014.3 |
| 20260905170016 | 94 | 61 | 4.0 | 7.0 | 0.00 | 0.00 | 0.00 | 60 | 1014.4 |
| 20260905165507 | 93 | 79 | 4.0 | 6.0 | 0.00 | 0.00 | 0.00 | 63 | 1014.5 |
| 20260905165012 | 93 | 192 | 2.0 | 4.0 | 0.00 | 0.00 | 0.00 | 60 | 1014.5 |
| 20260905164514 | 93 | 69 | 3.0 | 4.0 | 0.00 | 0.00 | 0.00 | 61 | 1014.5 |
| 20260905164008 | 93 | 73 | 2.0 | 3.0 | 0.00 | 0.00 | 0.00 | 61 | 1014.6 |
| 20260905163508 | 93 | 200 | 1.0 | 8.0 | 0.00 | 0.00 | 0.00 | 63 | 1014.7 |
| 20260905163017 | 92 | 27 | 2.0 | 10.0 | 0.00 | 0.00 | 0.00 | 61 | 1014.9 |
| 20260905162504 | 93 | 71 | 6.0 | 10.0 | 0.00 | 0.00 | 0.00 | 63 | 1015.0 |
| 20260905162005 | 92 | 67 | 1.0 | 3.0 | 0.00 | 0.00 | 0.00 | 62 | 1015.0 |
| 20260905161509 | 91 | 126 | 0.0 | 7.0 | 0.00 | 0.00 | 0.00 | 61 | 1015.0 |
| 20260905161005 | 91 | 94 | 2.0 | 7.0 | 0.00 | 0.00 | 0.00 | 62 | 1015.1 |
| 20260905160504 | 91 | 77 | 3.0 | 7.0 | 0.00 | 0.00 | 0.00 | 63 | 1015.1 |
| 20260905160023 | 91 | 65 | 3.0 | 7.0 | 0.00 | 0.00 | 0.00 | 66 | 1015.1 |
| 20260905155509 | 90 | 134 | 1.0 | 6.0 | 0.00 | 0.00 | 0.00 | 67 | 1015.1 |
| 20260905155011 | 90 | 164 | 0.0 | 10.0 | 0.00 | 0.00 | 0.00 | 67 | 1015.1 |
| 20260905154518 | 89 | 72 | 4.0 | 10.0 | 0.00 | 0.00 | 0.00 | 70 | 1015.2 |
| 20260905154011 | 89 | 93 | 4.0 | 7.0 | 0.00 | 0.00 | 0.00 | 71 | 1015.3 |
| 20260905153510 | 89 | 76 | 4.0 | 7.0 | 0.00 | 0.00 | 0.00 | 69 | 1015.2 |
| 20260905153021 | 89 | 48 | 2.0 | 12.0 | 0.00 | 0.00 | 0.00 | 67 | 1015.1 |
| 20260905152510 | 88 | 90 | 3.0 | 12.0 | 0.00 | 0.00 | 0.00 | 72 | 1015.2 |
| 20260905152008 | 88 | 72 | 4.0 | 14.0 | 0.00 | 0.00 | 0.00 | 73 | 1015.2 |
| 20260905151509 | 87 | 116 | 3.0 | 14.0 | 0.00 | 0.00 | 0.00 | 73 | 1015.2 |
| 20260905151004 | 88 | 67 | 6.0 | 13.0 | 0.00 | 0.00 | 0.00 | 72 | 1015.2 |
| 20260905150507 | 89 | 74 | 2.0 | 5.0 | 0.00 | 0.00 | 0.00 | 70 | 1015.2 |
| 20260905150014 | 89 | 355 | 2.0 | 5.0 | 0.00 | 0.00 | 0.00 | 68 | 1015.1 |
| 20260905145506 | 89 | 305 | 3.0 | 4.0 | 0.00 | 0.00 | 0.00 | 66 | 1015.0 |
| 20260905145011 | 89 | 170 | 0.0 | 2.0 | 0.00 | 0.00 | 0.00 | 71 | 1015.1 |
| 20260905144520 | 89 | 170 | 0.0 | 3.0 | 0.00 | 0.00 | 0.00 | 70 | 1015.1 |
| 20260905144014 | 88 | 101 | 1.0 | 3.0 | 0.00 | 0.00 | 0.00 | 73 | 1015.1 |
| 20260905143021 | 87 | 239 | 0.0 | 3.0 | 0.00 | 0.00 | 0.00 | 73 | 1015.1 |
| 20260905142509 | 87 | 192 | 2.0 | 3.0 | 0.00 | 0.00 | 0.00 | 77 | 1015.0 |
| 20260905142007 | 86 | 77 | 1.0 | 2.0 | 0.00 | 0.00 | 0.00 | 75 | 1015.2 |
| 20260905141520 | 86 | 72 | 1.0 | 2.0 | 0.00 | 0.00 | 0.00 | 77 | 1015.2 |
| 20260905141012 | 85 | 92 | 0.0 | 2.0 | 0.00 | 0.00 | 0.00 | 79 | 1015.1 |
| 20260905140504 | 84 | 57 | 0.0 | 3.0 | 0.00 | 0.00 | 0.00 | 78 | 1015.0 |
| 20260905140011 | 84 | 88 | 2.0 | 3.0 | 0.00 | 0.00 | 0.00 | 79 | 1015.1 |
| 20260905135504 | 83 | 52 | 2.0 | 3.0 | 0.00 | 0.00 | 0.00 | 83 | 1015.1 |
| 20260905135008 | 82 | 203 | 0.0 | 2.0 | 0.00 | 0.00 | 0.00 | 84 | 1015.0 |
| 20260905134518 | 81 | 203 | 0.0 | 2.0 | 0.00 | 0.00 | 0.00 | 85 | 1015.0 |
| 20260905134014 | 80 | 203 | 0.0 | 2.0 | 0.00 | 0.00 | 0.00 | 87 | 1015.1 |
| 20260905133509 | 79 | 203 | 1.0 | 2.0 | 0.00 | 0.00 | 0.00 | 89 | 1015.1 |
| 20260905133023 | 78 | 203 | 1.0 | 2.0 | 0.00 | 0.00 | 0.00 | 93 | 1015.2 |
| 20260905132511 | 77 | 225 | 1.0 | 2.0 | 0.00 | 0.00 | 0.00 | 95 | 1015.2 |
| 20260905132009 | 77 | 190 | 1.0 | 3.0 | 0.00 | 0.00 | 0.00 | 97 | 1015.2 |
| 20260905131523 | 76 | 184 | 2.0 | 3.0 | 0.00 | 0.00 | 0.00 | 97 | 1015.2 |
| 20260905131013 | 75 | 239 | 1.0 | 2.0 | 0.00 | 0.00 | 0.00 | 97 | 1015.2 |
| 20260905130509 | 75 | 239 | 0.0 | 2.0 | 0.00 | 0.00 | 0.00 | 97 | 1015.2 |
| 20260905130023 | 75 | 239 | 0.0 | 2.0 | 0.00 | 0.00 | 0.00 | 96 | 1015.2 |
| 20260905125515 | 75 | 239 | 0.0 | 2.0 | 0.00 | 0.00 | 0.00 | 96 | 1015.3 |
| 20260905125005 | 74 | 240 | 0.0 | 1.0 | 0.00 | 0.00 | 0.00 | 97 | 1015.3 |
| 20260905124517 | 74 | 239 | 0.0 | 1.0 | 0.00 | 0.00 | 0.00 | 96 | 1015.2 |
| 20260905124005 | 74 | 240 | 0.0 | 2.0 | 0.00 | 0.00 | 0.00 | 96 | 1015.2 |
| 20260905123507 | 74 | 151 | 1.0 | 2.0 | 0.00 | 0.00 | 0.00 | 96 | 1015.2 |
| 20260905123023 | 74 | 151 | 0.0 | 2.0 | 0.00 | 0.00 | 0.00 | 96 | 1015.3 |
| 20260905122512 | 74 | 151 | 0.0 | 2.0 | 0.00 | 0.00 | 0.00 | 96 | 1015.2 |
| 20260905122011 | 73 | 151 | 0.0 | 2.0 | 0.00 | 0.00 | 0.00 | 96 | 1015.2 |
| 20260905121524 | 73 | 151 | 0.0 | 2.0 | 0.00 | 0.00 | 0.00 | 96 | 1015.3 |
| 20260905121011 | 73 | 151 | 1.0 | 2.0 | 0.00 | 0.00 | 0.00 | 96 | 1015.2 |
| 20260905120510 | 73 | 34 | 0.0 | 4.0 | 0.00 | 0.00 | 0.00 | 96 | 1015.2 |
| 20260905120023 | 73 | 18 | 0.0 | 4.0 | 0.00 | 0.00 | 0.00 | 96 | 1015.1 |
| 20260905115509 | 73 | 28 | 3.0 | 4.0 | 0.00 | 0.00 | 0.00 | 96 | 1015.1 |
| 20260905115009 | 72 | 4 | 0.0 | 2.0 | 0.00 | 0.00 | 0.00 | 96 | 1015.0 |
| 20260905114523 | 72 | 4 | 0.0 | 2.0 | 0.00 | 0.00 | 0.00 | 96 | 1014.8 |
| 20260905114005 | 72 | 4 | 0.0 | 2.0 | 0.00 | 0.00 | 0.00 | 95 | 1014.7 |
| 20260905113507 | 73 | 4 | 0.0 | 2.0 | 0.00 | 0.00 | 0.00 | 95 | 1014.6 |
| 20260905113018 | 73 | 4 | 0.0 | 2.0 | 0.00 | 0.00 | 0.00 | 96 | 1014.5 |
| 20260905112510 | 73 | 4 | 0.0 | 0.0 | 0.00 | 0.00 | 0.00 | 96 | 1014.4 |
| 20260905112010 | 73 | 3 | 0.0 | 0.0 | 0.00 | 0.00 | 0.00 | 96 | 1014.5 |
| 20260905111524 | 73 | 3 | 0.0 | 0.0 | 0.00 | 0.00 | 0.00 | 96 | 1014.3 |
| 20260905111011 | 73 | 4 | 0.0 | 0.0 | 0.00 | 0.00 | 0.00 | 96 | 1014.2 |
| 20260905110512 | 73 | 4 | 0.0 | 2.0 | 0.00 | 0.00 | 0.00 | 96 | 1014.2 |
| 20260905110026 | 73 | 4 | 0.0 | 2.0 | 0.00 | 0.00 | 0.00 | 96 | 1014.2 |
| 20260905105514 | 73 | 4 | 0.0 | 2.0 | 0.00 | 0.00 | 0.00 | 96 | 1014.2 |
| 20260905105016 | 73 | 4 | 0.0 | 2.0 | 0.00 | 0.00 | 0.00 | 95 | 1014.1 |
| 20260905104528 | 73 | 4 | 0.0 | 2.0 | 0.00 | 0.00 | 0.00 | 95 | 1014.1 |
| 20260905104011 | 73 | 4 | 0.0 | 2.0 | 0.00 | 0.00 | 0.00 | 95 | 1014.0 |
| 20260905103512 | 73 | 4 | 0.0 | 2.0 | 0.00 | 0.00 | 0.00 | 95 | 1014.1 |
| 20260905103019 | 73 | 89 | 0.0 | 0.0 | 0.00 | 0.00 | 0.00 | 95 | 1014.1 |
| 20260905102508 | 73 | 89 | 0.0 | 2.0 | 0.00 | 0.00 | 0.00 | 96 | 1014.1 |
| 20260905102008 | 74 | 89 | 0.0 | 2.0 | 0.00 | 0.00 | 0.00 | 96 | 1014.1 |
| 20260905101524 | 74 | 67 | 0.0 | 2.0 | 0.00 | 0.00 | 0.00 | 96 | 1014.1 |
| 20260905101010 | 74 | 67 | 1.0 | 2.0 | 0.00 | 0.00 | 0.00 | 96 | 1014.2 |
| 20260905100514 | 74 | 87 | 1.0 | 2.0 | 0.00 | 0.00 | 0.00 | 96 | 1014.0 |
| 20260905100027 | 73 | 124 | 0.0 | 2.0 | 0.00 | 0.00 | 0.00 | 96 | 1013.9 |
| 20260905095513 | 73 | 124 | 0.0 | 0.0 | 0.00 | 0.00 | 0.00 | 95 | 1013.9 |
| 20260905095012 | 73 | 124 | 0.0 | 0.0 | 0.00 | 0.00 | 0.00 | 95 | 1013.9 |
| 20260905094535 | 73 | 124 | 0.0 | 0.0 | 0.00 | 0.00 | 0.00 | 96 | 1013.9 |
| 20260905094013 | 73 | 124 | 0.0 | 0.0 | 0.00 | 0.00 | 0.00 | 96 | 1013.9 |
| 20260905093514 | 73 | 124 | 0.0 | 0.0 | 0.00 | 0.00 | 0.00 | 96 | 1013.9 |
| 20260905093027 | 73 | 124 | 0.0 | 0.0 | 0.00 | 0.00 | 0.00 | 95 | 1013.9 |
| 20260905092511 | 73 | 124 | 0.0 | 0.0 | 0.00 | 0.00 | 0.00 | 95 | 1013.8 |
| 20260905092008 | 73 | 124 | 0.0 | 0.0 | 0.00 | 0.00 | 0.00 | 95 | 1013.8 |
| 20260905091550 | 73 | 124 | 0.0 | 0.0 | 0.00 | 0.00 | 0.00 | 95 | 1013.8 |
| 20260905091014 | 74 | 124 | 0.0 | 2.0 | 0.00 | 0.00 | 0.00 | 95 | 1013.7 |
| 20260905090510 | 74 | 124 | 0.0 | 2.0 | 0.00 | 0.00 | 0.00 | 95 | 1013.7 |
| 20260905090025 | 74 | 124 | 0.0 | 1.0 | 0.00 | 0.00 | 0.00 | 95 | 1013.7 |
| 20260905085513 | 74 | 124 | 0.0 | 1.0 | 0.00 | 0.00 | 0.00 | 96 | 1013.7 |
| 20260905085017 | 74 | 124 | 0.0 | 1.0 | 0.00 | 0.00 | 0.00 | 96 | 1013.6 |
| 20260905084528 | 74 | 124 | 0.0 | 1.0 | 0.00 | 0.00 | 0.00 | 95 | 1013.7 |
| 20260905084015 | 74 | 174 | 0.0 | 0.0 | 0.00 | 0.00 | 0.00 | 95 | 1013.6 |
| 20260905083516 | 74 | 174 | 0.0 | 0.0 | 0.00 | 0.00 | 0.00 | 95 | 1013.6 |
| 20260905083028 | 74 | 174 | 0.0 | 1.0 | 0.00 | 0.00 | 0.00 | 95 | 1013.7 |
| 20260905082515 | 74 | 174 | 0.0 | 1.0 | 0.00 | 0.00 | 0.00 | 95 | 1013.7 |
| 20260905082012 | 74 | 174 | 0.0 | 1.0 | 0.00 | 0.00 | 0.00 | 95 | 1013.7 |
| 20260905081529 | 74 | 174 | 0.0 | 1.0 | 0.00 | 0.00 | 0.00 | 95 | 1013.7 |
| 20260905081014 | 74 | 174 | 0.0 | 1.0 | 0.00 | 0.00 | 0.00 | 95 | 1013.7 |
| 20260905080515 | 74 | 174 | 0.0 | 2.0 | 0.00 | 0.00 | 0.00 | 95 | 1013.8 |
| 20260905080027 | 74 | 174 | 0.0 | 2.0 | 0.00 | 0.00 | 0.00 | 95 | 1013.8 |
| 20260905075511 | 74 | 174 | 0.0 | 2.0 | 0.00 | 0.00 | 0.00 | 95 | 1013.8 |
| 20260905075013 | 74 | 174 | 0.0 | 2.0 | 0.00 | 0.00 | 0.00 | 95 | 1013.8 |
| 20260905074530 | 75 | 174 | 1.0 | 2.0 | 0.00 | 0.00 | 0.00 | 95 | 1013.8 |
| 20260905074013 | 75 | 115 | 1.0 | 2.0 | 0.00 | 0.00 | 0.00 | 95 | 1013.9 |
| 20260905073503 | 74 | 115 | 0.0 | 2.0 | 0.00 | 0.00 | 0.00 | 95 | 1013.9 |
| 20260905073006 | 74 | 115 | 0.0 | 0.0 | 0.00 | 0.00 | 0.00 | 95 | 1013.9 |
| 20260905072505 | 74 | 115 | 0.0 | 0.0 | 0.00 | 0.00 | 0.00 | 95 | 1013.9 |
| 20260905072007 | 75 | 115 | 0.0 | 0.0 | 0.00 | 0.00 | 0.00 | 95 | 1013.9 |
| 20260905071512 | 75 | 115 | 0.0 | 0.0 | 0.00 | 0.00 | 0.00 | 95 | 1013.9 |
| 20260905071008 | 75 | 115 | 0.0 | 0.0 | 0.00 | 0.00 | 0.00 | 95 | 1013.9 |
| 20260905070507 | 75 | 115 | 0.0 | 0.0 | 0.00 | 0.00 | 0.00 | 95 | 1014.0 |
| 20260905070024 | 74 | 115 | 0.0 | 0.0 | 0.00 | 0.00 | 0.00 | 95 | 1014.0 |
| 20260905065512 | 75 | 115 | 0.0 | 2.0 | 0.00 | 0.00 | 0.00 | 94 | 1014.0 |
| 20260905065013 | 75 | 115 | 0.0 | 2.0 | 0.00 | 0.00 | 0.00 | 94 | 1014.0 |
| 20260905064526 | 75 | 115 | 0.0 | 0.0 | 0.00 | 0.00 | 0.00 | 94 | 1014.0 |
| 20260905064003 | 75 | 115 | 0.0 | 0.0 | 0.00 | 0.00 | 0.00 | 94 | 1014.1 |
| 20260905063503 | 75 | 115 | 0.0 | 2.0 | 0.00 | 0.00 | 0.00 | 94 | 1014.1 |
| 20260905063007 | 75 | 115 | 0.0 | 2.0 | 0.00 | 0.00 | 0.00 | 94 | 1014.2 |
| 20260905062507 | 75 | 115 | 0.0 | 2.0 | 0.00 | 0.00 | 0.00 | 94 | 1014.2 |
| 20260905062006 | 75 | 115 | 0.0 | 1.0 | 0.00 | 0.00 | 0.00 | 94 | 1014.3 |
| 20260905061513 | 75 | 115 | 0.0 | 0.0 | 0.00 | 0.00 | 0.00 | 94 | 1014.4 |
| 20260905061013 | 75 | 115 | 0.0 | 0.0 | 0.00 | 0.00 | 0.00 | 94 | 1014.4 |
| 20260905060511 | 75 | 115 | 0.0 | 0.0 | 0.00 | 0.00 | 0.00 | 94 | 1014.4 |
| 20260905060018 | 75 | 115 | 0.0 | 0.0 | 0.00 | 0.00 | 0.00 | 94 | 1014.4 |
| 20260905055516 | 75 | 115 | 0.0 | 0.0 | 0.00 | 0.00 | 0.00 | 94 | 1014.2 |
| 20260905055011 | 76 | 115 | 0.0 | 0.0 | 0.00 | 0.00 | 0.00 | 94 | 1014.3 |
| 20260905054526 | 76 | 115 | 0.0 | 0.0 | 0.00 | 0.00 | 0.00 | 94 | 1014.4 |
| 20260905054014 | 76 | 115 | 0.0 | 0.0 | 0.00 | 0.00 | 0.00 | 94 | 1014.4 |
| 20260905053512 | 76 | 115 | 0.0 | 0.0 | 0.00 | 0.00 | 0.00 | 94 | 1014.4 |
| 20260905053006 | 76 | 115 | 0.0 | 0.0 | 0.00 | 0.00 | 0.00 | 94 | 1014.3 |
| 20260905052507 | 76 | 115 | 0.0 | 2.0 | 0.00 | 0.00 | 0.00 | 94 | 1014.4 |
| 20260905052004 | 76 | 115 | 0.0 | 2.0 | 0.00 | 0.00 | 0.00 | 94 | 1014.3 |
| 20260905051513 | 76 | 115 | 0.0 | 0.0 | 0.00 | 0.00 | 0.00 | 93 | 1014.4 |
| 20260905051004 | 76 | 115 | 0.0 | 0.0 | 0.00 | 0.00 | 0.00 | 93 | 1014.4 |
| 20260905050511 | 76 | 115 | 0.0 | 2.0 | 0.00 | 0.00 | 0.00 | 93 | 1014.4 |
| 20260905050017 | 77 | 115 | 0.0 | 2.0 | 0.00 | 0.00 | 0.00 | 93 | 1014.4 |
| 20260905045508 | 77 | 115 | 0.0 | 2.0 | 0.00 | 0.00 | 0.00 | 94 | 1014.4 |
| 20260905045011 | 77 | 115 | 0.0 | 1.0 | 0.00 | 0.00 | 0.00 | 94 | 1014.5 |
| 20260905044528 | 77 | 115 | 1.0 | 2.0 | 0.00 | 0.00 | 0.00 | 93 | 1014.4 |
| 20260905044015 | 77 | 115 | 1.0 | 2.0 | 0.00 | 0.00 | 0.00 | 93 | 1014.5 |
| 20260905043514 | 77 | 115 | 0.0 | 2.0 | 0.00 | 0.00 | 0.00 | 93 | 1014.4 |
| 20260905043029 | 77 | 115 | 0.0 | 2.0 | 0.00 | 0.00 | 0.00 | 93 | 1014.5 |
| 20260905042514 | 77 | 115 | 0.0 | 2.0 | 0.00 | 0.00 | 0.00 | 93 | 1014.4 |
| 20260905042004 | 77 | 115 | 0.0 | 2.0 | 0.00 | 0.00 | 0.00 | 93 | 1014.5 |
| 20260905041508 | 77 | 115 | 1.0 | 2.0 | 0.00 | 0.00 | 0.00 | 93 | 1014.4 |
| 20260905041004 | 77 | 115 | 0.0 | 2.0 | 0.00 | 0.00 | 0.00 | 93 | 1014.4 |
| 20260905040507 | 77 | 115 | 1.0 | 1.0 | 0.00 | 0.00 | 0.00 | 92 | 1014.5 |
| 20260905040015 | 77 | 217 | 0.0 | 3.0 | 0.00 | 0.00 | 0.00 | 91 | 1014.4 |
| 20260905035508 | 77 | 217 | 1.0 | 3.0 | 0.00 | 0.00 | 0.00 | 92 | 1014.5 |
| 20260905035009 | 77 | 212 | 1.0 | 3.0 | 0.00 | 0.00 | 0.00 | 92 | 1014.5 |
| 20260905034520 | 78 | 213 | 1.0 | 2.0 | 0.00 | 0.00 | 0.00 | 92 | 1014.5 |
| 20260905034009 | 78 | 105 | 0.0 | 2.0 | 0.00 | 0.00 | 0.00 | 93 | 1014.6 |
| 20260905033513 | 78 | 105 | 0.0 | 2.0 | 0.00 | 0.00 | 0.00 | 92 | 1014.5 |
| 20260905033032 | 78 | 105 | 0.0 | 0.0 | 0.00 | 0.00 | 0.00 | 92 | 1014.5 |
| 20260905032515 | 78 | 105 | 0.0 | 0.0 | 0.00 | 0.00 | 0.00 | 92 | 1014.4 |
| 20260905032014 | 78 | 105 | 0.0 | 1.0 | 0.00 | 0.00 | 0.00 | 91 | 1014.4 |
| 20260905031528 | 78 | 105 | 0.0 | 2.0 | 0.00 | 0.00 | 0.00 | 91 | 1014.4 |
| 20260905031013 | 78 | 105 | 0.0 | 2.0 | 0.00 | 0.00 | 0.00 | 91 | 1014.5 |
| 20260905030506 | 78 | 105 | 0.0 | 0.0 | 0.00 | 0.00 | 0.00 | 91 | 1014.5 |
| 20260905030022 | 78 | 105 | 0.0 | 0.0 | 0.00 | 0.00 | 0.00 | 91 | 1014.5 |
| 20260905025503 | 78 | 105 | 0.0 | 0.0 | 0.00 | 0.00 | 0.00 | 91 | 1014.5 |
| 20260905025005 | 78 | 105 | 0.0 | 0.0 | 0.00 | 0.00 | 0.00 | 90 | 1014.4 |
| 20260905024520 | 79 | 105 | 0.0 | 2.0 | 0.00 | 0.00 | 0.00 | 90 | 1014.4 |
| 20260905024010 | 79 | 105 | 0.0 | 2.0 | 0.00 | 0.00 | 0.00 | 90 | 1014.4 |
| 20260905023508 | 79 | 105 | 1.0 | 2.0 | 0.00 | 0.00 | 0.00 | 90 | 1014.3 |
| 20260905023031 | 79 | 105 | 0.0 | 2.0 | 0.00 | 0.00 | 0.00 | 90 | 1014.5 |
| 20260905022511 | 79 | 105 | 0.0 | 2.0 | 0.00 | 0.00 | 0.00 | 90 | 1014.5 |
| 20260905022012 | 79 | 105 | 0.0 | 2.0 | 0.00 | 0.00 | 0.00 | 90 | 1014.5 |
| 20260905021530 | 79 | 105 | 1.0 | 1.0 | 0.00 | 0.00 | 0.00 | 89 | 1014.5 |
| 20260905021018 | 80 | 105 | 0.0 | 2.0 | 0.00 | 0.00 | 0.00 | 90 | 1014.4 |
| 20260905020516 | 80 | 105 | 0.0 | 2.0 | 0.00 | 0.00 | 0.00 | 90 | 1014.3 |
| 20260905020036 | 80 | 105 | 0.0 | 0.0 | 0.00 | 0.00 | 0.00 | 90 | 1014.4 |
| 20260905015505 | 80 | 105 | 0.0 | 2.0 | 0.00 | 0.00 | 0.00 | 90 | 1014.4 |
| 20260905015007 | 80 | 105 | 0.0 | 2.0 | 0.00 | 0.00 | 0.00 | 89 | 1014.3 |
| 20260905014521 | 80 | 105 | 0.0 | 0.0 | 0.00 | 0.00 | 0.00 | 88 | 1014.2 |
| 20260905014006 | 80 | 105 | 0.0 | 0.0 | 0.00 | 0.00 | 0.00 | 88 | 1014.2 |
| 20260905013509 | 80 | 105 | 0.0 | 1.0 | 0.00 | 0.00 | 0.00 | 88 | 1014.1 |
| 20260905013019 | 81 | 105 | 0.0 | 2.0 | 0.00 | 0.00 | 0.00 | 88 | 1014.0 |
| 20260905012513 | 81 | 105 | 0.0 | 2.0 | 0.00 | 0.00 | 0.00 | 88 | 1014.0 |
| 20260905012013 | 81 | 105 | 0.0 | 1.0 | 0.00 | 0.00 | 0.00 | 87 | 1014.0 |
| 20260905011527 | 81 | 105 | 0.0 | 1.0 | 0.00 | 0.00 | 0.00 | 87 | 1014.0 |
| 20260905011013 | 81 | 105 | 0.0 | 2.0 | 0.00 | 0.00 | 0.00 | 86 | 1014.0 |
| 20260905010516 | 81 | 105 | 0.0 | 2.0 | 0.00 | 0.00 | 0.00 | 86 | 1014.0 |
| 20260905010034 | 82 | 105 | 0.0 | 0.0 | 0.00 | 0.00 | 0.00 | 86 | 1013.9 |
| 20260905005516 | 82 | 105 | 0.0 | 0.0 | 0.00 | 0.00 | 0.00 | 86 | 1013.8 |
| 20260905005017 | 82 | 105 | 0.0 | 0.0 | 0.00 | 0.00 | 0.00 | 86 | 1013.8 |
| 20260905004515 | 83 | 105 | 0.0 | 1.0 | 0.00 | 0.00 | 0.00 | 85 | 1013.8 |
| 20260905004008 | 83 | 105 | 0.0 | 2.0 | 0.00 | 0.00 | 0.00 | 85 | 1013.8 |
| 20260905003509 | 83 | 105 | 0.0 | 2.0 | 0.00 | 0.00 | 0.00 | 84 | 1013.7 |
| 20260905003028 | 83 | 105 | 0.0 | 2.0 | 0.00 | 0.00 | 0.00 | 83 | 1013.8 |
| 20260905002513 | 84 | 105 | 0.0 | 2.0 | 0.00 | 0.00 | 0.00 | 83 | 1013.8 |
| 20260905002016 | 84 | 105 | 0.0 | 2.0 | 0.00 | 0.00 | 0.00 | 83 | 1013.8 |
| 20260905001544 | 84 | 105 | 0.0 | 1.0 | 0.00 | 0.00 | 0.00 | 82 | 1013.8 |
| 20260905001016 | 85 | 105 | 0.0 | 2.0 | 0.00 | 0.00 | 0.00 | 82 | 1013.8 |
| 20260905000512 | 85 | 105 | 0.0 | 2.0 | 0.00 | 0.00 | 0.00 | 82 | 1013.9 |
| 20260905000031 | 86 | 105 | 0.0 | 2.0 | 0.00 | 0.00 | 0.00 | 82 | 1013.9 |
| 20260904235516 | 86 | 105 | 0.0 | 2.0 | 0.00 | 0.00 | 0.00 | 81 | 1013.9 |
| 20260904235017 | 87 | 105 | 0.0 | 2.0 | 0.00 | 0.00 | 0.00 | 80 | 1013.9 |
| 20260904234539 | 87 | 105 | 0.0 | 2.0 | 0.00 | 0.00 | 0.00 | 79 | 1013.9 |
| 20260904234017 | 88 | 105 | 0.0 | 2.0 | 0.00 | 0.00 | 0.00 | 78 | 1013.9 |
| 20260904233508 | 89 | 105 | 0.0 | 0.0 | 0.00 | 0.00 | 0.00 | 76 | 1013.9 |
| 20260904233036 | 89 | 105 | 0.0 | 1.0 | 0.00 | 0.00 | 0.00 | 74 | 1013.8 |
| 20260904232509 | 90 | 105 | 0.0 | 1.0 | 0.00 | 0.00 | 0.00 | 73 | 1013.7 |
| 20260904232012 | 91 | 105 | 0.0 | 0.0 | 0.00 | 0.00 | 0.00 | 73 | 1013.6 |
| 20260904231531 | 92 | 105 | 0.0 | 0.0 | 0.00 | 0.00 | 0.00 | 72 | 1013.6 |
| 20260904231012 | 92 | 105 | 0.0 | 0.0 | 0.00 | 0.00 | 0.00 | 71 | 1013.6 |
| 20260904230515 | 92 | 105 | 0.0 | 0.0 | 0.00 | 0.00 | 0.00 | 69 | 1013.6 |
| 20260904230030 | 93 | 105 | 0.0 | 1.0 | 0.00 | 0.00 | 0.00 | 70 | 1013.6 |
| 20260904225516 | 93 | 105 | 0.0 | 2.0 | 0.00 | 0.00 | 0.00 | 67 | 1013.5 |
| 20260904225014 | 93 | 105 | 0.0 | 2.0 | 0.00 | 0.00 | 0.00 | 65 | 1013.6 |
| 20260904224537 | 93 | 86 | 0.0 | 2.0 | 0.00 | 0.00 | 0.00 | 65 | 1013.6 |
| 20260904224016 | 93 | 86 | 0.0 | 2.0 | 0.00 | 0.00 | 0.00 | 64 | 1013.6 |
| 20260904223515 | 93 | 86 | 0.0 | 2.0 | 0.00 | 0.00 | 0.00 | 65 | 1013.6 |
| 20260904223033 | 93 | 78 | 0.0 | 2.0 | 0.00 | 0.00 | 0.00 | 66 | 1013.6 |
| 20260904222509 | 93 | 78 | 0.0 | 2.0 | 0.00 | 0.00 | 0.00 | 68 | 1013.6 |
| 20260904222006 | 94 | 78 | 0.0 | 2.0 | 0.00 | 0.00 | 0.00 | 67 | 1013.7 |
| 20260904221520 | 94 | 78 | 0.0 | 2.0 | 0.00 | 0.00 | 0.00 | 65 | 1013.7 |
| 20260904221012 | 94 | 79 | 0.0 | 4.0 | 0.00 | 0.00 | 0.00 | 64 | 1013.7 |
| 20260904220510 | 95 | 84 | 1.0 | 4.0 | 0.00 | 0.00 | 0.00 | 64 | 1013.7 |
| 20260904220029 | 95 | 84 | 2.0 | 4.0 | 0.00 | 0.00 | 0.00 | 62 | 1013.7 |
| 20260904215512 | 95 | 71 | 2.0 | 4.0 | 0.00 | 0.00 | 0.00 | 62 | 1013.8 |
| 20260904215013 | 95 | 78 | 2.0 | 7.0 | 0.00 | 0.00 | 0.00 | 63 | 1013.7 |
| 20260904214530 | 95 | 80 | 3.0 | 7.0 | 0.00 | 0.00 | 0.00 | 62 | 1013.7 |
| 20260904214014 | 95 | 86 | 2.0 | 4.0 | 0.00 | 0.00 | 0.00 | 66 | 1013.8 |
| 20260904213521 | 94 | 98 | 1.0 | 3.0 | 0.00 | 0.00 | 0.00 | 62 | 1013.8 |
| 20260904213030 | 94 | 113 | 0.0 | 6.0 | 0.00 | 0.00 | 0.00 | 62 | 1013.9 |
| 20260904212517 | 93 | 113 | 1.0 | 6.0 | 0.00 | 0.00 | 0.00 | 66 | 1013.9 |
| 20260904212019 | 93 | 95 | 0.0 | 3.0 | 0.00 | 0.00 | 0.00 | 66 | 1013.9 |
| 20260904211517 | 93 | 86 | 2.0 | 3.0 | 0.00 | 0.00 | 0.00 | 66 | 1013.9 |
| 20260904211009 | 93 | 80 | 2.0 | 3.0 | 0.00 | 0.00 | 0.00 | 66 | 1014.0 |
| 20260904210509 | 93 | 79 | 2.0 | 3.0 | 0.00 | 0.00 | 0.00 | 65 | 1014.1 |
| 20260904210024 | 94 | 87 | 0.0 | 2.0 | 0.00 | 0.00 | 0.00 | 65 | 1014.0 |
| 20260904205514 | 95 | 87 | 0.0 | 3.0 | 0.00 | 0.00 | 0.00 | 58 | 1014.1 |
| 20260904205011 | 96 | 87 | 0.0 | 4.0 | 0.00 | 0.00 | 0.00 | 59 | 1014.2 |
| 20260904204531 | 97 | 77 | 2.0 | 8.0 | 0.00 | 0.00 | 0.00 | 51 | 1014.3 |
| 20260904204013 | 98 | 72 | 4.0 | 8.0 | 0.00 | 0.00 | 0.00 | 51 | 1014.3 |
| 20260904203516 | 99 | 66 | 3.0 | 8.0 | 0.00 | 0.00 | 0.00 | 49 | 1014.4 |
| 20260904203037 | 99 | 21 | 3.0 | 8.0 | 0.00 | 0.00 | 0.00 | 48 | 1014.4 |
| 20260904202517 | 100 | 3 | 4.0 | 8.0 | 0.00 | 0.00 | 0.00 | 48 | 1014.4 |
| 20260904202016 | 100 | 51 | 4.0 | 8.0 | 0.00 | 0.00 | 0.00 | 51 | 1014.5 |
| 20260904201534 | 100 | 14 | 2.0 | 5.0 | 0.00 | 0.00 | 0.00 | 46 | 1014.6 |
| 20260904201020 | 99 | 230 | 1.0 | 4.0 | 0.00 | 0.00 | 0.00 | 47 | 1014.7 |
| 20260904200513 | 99 | 263 | 1.0 | 4.0 | 0.00 | 0.00 | 0.00 | 46 | 1014.8 |